Regional Weather Roundup
Issued by NWS Charleston, SC

Current Version | Previous Version | Graphics & Text | Print | Product List | Glossary On
Versions: 1 2 3 4 5 6 7 8 9 10 11 12 13 14 15 16 17 18 19 20 21 22 23 24 25 26 27 28 29 30 31 32 33 34 35 36 37 38 39 40 41 42 43 44 45 46 47 48 49 50
000
ASUS42 KCHS 200425
RWRCHS

REGIONAL WEATHER ROUNDUP
NATIONAL WEATHER SERVICE CHARLESTON SC
1200 AM EDT MON OCT 20 2014

NOTE: "FAIR" INDICATES FEW OR NO CLOUDS BELOW 12,000 FEET WITH NO
SIGNIFICANT WEATHER AND/OR OBSTRUCTIONS TO VISIBILITY.

NOT ALL STATIONS ARE QUALITY CONTROLLED BY THE NATIONAL
WEATHER SERVICE. USE DATA WITH CAUTION...ESPECIALLY
DEWPOINT OBSERVATIONS.

SCZ027-030-031-034>040-042>050-200500-
...SOUTH CAROLINA...

CITY           SKY/WX    TMP DP  RH WIND       PRES   REMARKS
N CHARLESTON   NOT AVBL
WATERFRONT PRK   N/A     64 N/A N/A NE6         N/A
FORT JOHNSON   NOT AVBL
JOHNS ISLAND   NOT AVBL
PINOPOLIS      NOT AVBL
MONCKS CORNER  NOT AVBL
SUMMERVILLE    NOT AVBL
BEAUFORT MCAS  FAIR      54  50  86 CALM      30.13S
BEAUFORT ARPT  NOT AVBL
HILTON HEAD IS NOT AVBL
GEORGETOWN     NOT AVBL
WALTERBORO     NOT AVBL
ORANGEBURG     NOT AVBL
BARNWELL       NOT AVBL
AIKEN          NOT AVBL
MANNING        NOT AVBL
KINGSTREE      NOT AVBL
COLUMBIA       NOT AVBL
SUMTER         NOT AVBL
FLORENCE       NOT AVBL
MYRTLE BEACH   NOT AVBL
N MYRTLE BEACH NOT AVBL

$$

GAZ063-065-086>088-099>101-113>116-118-119-134-136>141-150-200500-
...GEORGIA...

CITY           SKY/WX    TMP DP  RH WIND       PRES   REMARKS
SAVANNAH ARPT  NOT AVBL
HUNTER AAF     NOT AVBL
FORT STEWART   NOT AVBL
STATESBORO     NOT AVBL
SYLVANIA       NOT AVBL
CLAXTON        NOT AVBL
THOMSON        NOT AVBL
AUGUSTA-BUSH   NOT AVBL
AUGUSTA-DANIEL NOT AVBL
SWAINSBORO     NOT AVBL
VIDALIA        NOT AVBL
ALMA           NOT AVBL
WAYCROSS       NOT AVBL
JESUP          NOT AVBL
BRUNSWICK      NOT AVBL
SAINT SIMONS   NOT AVBL

$$

SCZ027-028-034-036>038-045-046-048>050-GAZ119-141-200500-
...LAKE AND SUPPLEMENTAL COASTAL OBSERVATIONS...

STATION/POSITION TIME  TEMP    WIND        PRES    WAVE   SWELL
                       AIR SEA DIR/SP/G            HT/PER HT/PER/DIR
                 (UTC) (F)     (DEG/KT/KT) (MB)    (FT/S) (FT/S/D)
UPR LAKE MARION  NOT AVBL
WINYAH BAY       0300   56     330/  2     1020.0S
LAKE MURRAY      0300   59        CALM     1019.6R
ACE BASIN NERRS  0300   54        CALM     1019.0S
FORT PULASKI     0300   67      40/  4/  5 1020.1R
SAPELO ISLAND    NOT AVBL

$$

ANZ835-935-AMZ111-154-330-350-352-354-374-450-454-472-200500-
...C-MAN AND BUOY OBSERVATIONS...

STATION/POSITION TIME  TEMP    WIND        PRES    WAVE   SWELL
                       AIR SEA DIR/SP/G            HT/PER HT/PER/DIR
                 (UTC) (F)     (DEG/KT/KT) (MB)    (FT/S) (FT/S/D)
FOLLY BEACH CMAN 0300   61     300/  3/  4 1020.4R
BUOY 41004       0300   69 80   50/  8/ 12 1019.7R   3/12   3/12
BUOY 41008       0300   69 76   70/  8/ 12 1019.6R   3/ 7   3/ 70/ 7
5E ST. MARYS GA  0300      77                N/A     3/ 5   2/ 90/13
FRYING PAN BUOY  0300   66 75   20/  8/ 12 1021.0R   2/11   2/100/11
BUOY 41025       0300   62     350/ 16/ 19 1019.7S   4/ 8   3/ 10/ 8
CAPE LOOKOUT NC  0300   60     360/  8/  9 1020.3R
BUOY 41002       NOT AVBL
BUOY 41010       0300   77 80   40/ 16/ 19 1017.5S   5/ 7   2/ 60/10
BUOY 41012       NOT AVBL
ST AUGUSTINE FL  0300   73      50/ 13/ 14 1019.3R
CAPERS NEARSHORE 0300   66      20/  6/  6   N/A
FRIPP NEARSHORE  NOT AVBL


$$


USA.gov is the U.S. government's official web portal to all federal, state and local government web resources and services.